Reidsville, NC

2:09 PM EDT on June 23, 2017 (GMT -0400)
Reidsville

Weather History for KSIF - May, 2013

Change the Weather History Date:

Tuesday, May 14, 2013

  Actual Average (KGSO) Record (KGSO)
Temperature  
Mean Temperature 52 °F -  
Max Temperature 71 °F 77 °F 93 °F (1956)
Min Temperature 32 °F 55 °F 40 °F (1941)
Degree Days  
Heating Degree Days 14    
Growing Degree Days 2 (Base 50)    
Moisture  
Dew Point 38 °F    
Average Humidity 66    
Maximum Humidity 100    
Minimum Humidity 31    
Precipitation  
Precipitation 0.00 in - - ()
Sea Level Pressure  
Sea Level Pressure 30.17 in    
Wind  
Wind Speed 2 mph (SSW)    
Max Wind Speed 13 mph    
Max Gust Speed 16 mph    
Visibility 10 miles    
Events      
Averages and records for this station are not official NWS values.
T = Trace of Precipitation, MM = Missing Value Source: NWS Daily Summary

Daily Weather History Graph

Daily Weather History Graph

Search for Another Location

Airport or City:

Trip Planner

Search our weather history database for the weather conditions in past years. The results will help you decide how hot, cold, wet, or windy it might be!

Date:

Astronomy

May. 14, 2013 Rise Set
Actual Time 6:13 AM EDT 8:18 PM EDT
Civil Twilight 5:44 AM EDT 8:47 PM EDT
Nautical Twilight 5:09 AM EDT 9:22 PM EDT
Astronomical Twilight 4:31 AM EDT 10:00 PM EDT
Moon 9:51 AM EDT (5/14) No Moon Set
Length of Visible Light 15h 02m
Length of Day
14h 05m
Waxing Crescent, 19% of the Moon is Illuminated
May 14
Waxing Crescent
May 18
First Quarter
May 25
Full
May 31
Last Quarter
Jun 8
New

Hourly Weather History & Observations

Time (EDT) Temp. Dew Point Humidity Pressure Visibility Wind Dir Wind Speed Gust Speed Precip Events Conditions
12:15 AM 37.6 °F 36.5 °F 96% 30.20 in 10.0 mi Calm Calm - N/A   Clear
12:35 AM 37.8 °F 36.5 °F 95% 30.21 in 10.0 mi Calm Calm - N/A   Clear
12:55 AM 37.0 °F 36.1 °F 97% 30.21 in 10.0 mi Calm Calm - N/A   Clear
1:15 AM 36.5 °F 35.8 °F 97% 30.20 in 10.0 mi Calm Calm - N/A   Clear
1:35 AM 36.5 °F 35.8 °F 97% 30.21 in 10.0 mi Calm Calm - N/A   Clear
1:55 AM 36.0 °F 35.6 °F 99% 30.20 in 10.0 mi Calm Calm - N/A   Clear
2:15 AM 35.8 °F 35.2 °F 98% 30.20 in 10.0 mi Calm Calm - N/A   Clear
2:35 AM 34.9 °F 34.7 °F 99% 30.21 in 10.0 mi Calm Calm - N/A   Clear
2:55 AM 34.7 °F 34.2 °F 98% 30.21 in 10.0 mi Calm Calm - N/A   Clear
3:15 AM 34.2 °F 34.0 °F 99% 30.21 in 10.0 mi Calm Calm - N/A   Clear
3:35 AM 34.7 °F 34.7 °F 100% 30.21 in 10.0 mi Calm Calm - N/A   Clear
3:55 AM 33.8 °F 33.6 °F 99% 30.22 in 10.0 mi Calm Calm - N/A   Clear
4:15 AM 33.6 °F 33.4 °F 99% 30.22 in 7.0 mi Calm Calm - N/A   Clear
4:35 AM 33.1 °F 32.9 °F 99% 30.22 in 10.0 mi Calm Calm - N/A   Clear
4:55 AM 33.4 °F 33.4 °F 100% 30.22 in 10.0 mi Calm Calm - N/A   Clear
5:15 AM 32.5 °F 32.4 °F 99% 30.22 in 10.0 mi Calm Calm - N/A   Clear
5:35 AM 32.2 °F 32.0 °F 99% 30.23 in 7.0 mi Calm Calm - N/A   Clear
5:55 AM 32.4 °F 32.2 °F 99% 30.23 in 7.0 mi Calm Calm - N/A   Clear
6:15 AM 32.0 °F 32.0 °F 100% 30.24 in 7.0 mi Calm Calm - N/A   Clear
6:35 AM 32.0 °F 32.0 °F 100% 30.25 in 7.0 mi Calm Calm - N/A   Clear
6:55 AM 32.5 °F 32.5 °F 100% 30.25 in 7.0 mi Calm Calm - N/A   Clear
7:15 AM 37.6 °F 37.6 °F 100% 30.26 in 10.0 mi Calm Calm - N/A   Clear
7:35 AM 39.4 °F 38.5 °F 97% 30.26 in 10.0 mi Calm Calm - N/A   Clear
7:55 AM 41.4 °F 38.5 °F 89% 30.26 in 10.0 mi Calm Calm - N/A   Clear
8:15 AM 43.3 °F 39.4 °F 86% 30.26 in 10.0 mi Calm Calm - N/A   Clear
8:35 AM 45.7 °F 40.1 °F 81% 30.26 in 10.0 mi Calm Calm - N/A   Clear
8:55 AM 48.2 °F 40.8 °F 76% 30.26 in 10.0 mi Calm Calm - N/A   Clear
9:15 AM 51.3 °F 41.0 °F 68% 30.27 in 10.0 mi SW 4.6 mph - N/A   Clear
9:35 AM 53.1 °F 38.3 °F 57% 30.26 in 10.0 mi Calm Calm - N/A   Clear
9:55 AM 54.1 °F 37.2 °F 53% 30.26 in 10.0 mi SSW 5.8 mph - N/A   Clear
10:15 AM 55.4 °F 38.1 °F 52% 30.26 in 10.0 mi South 4.6 mph - N/A   Clear
10:35 AM 57.0 °F 38.3 °F 50% 30.26 in 10.0 mi South 5.8 mph - N/A   Clear
10:55 AM 58.3 °F 38.1 °F 47% 30.26 in 10.0 mi WSW 4.6 mph - N/A   Clear
11:15 AM 60.1 °F 38.3 °F 44% 30.26 in 10.0 mi SW 3.5 mph - N/A   Clear
11:35 AM 60.8 °F 37.9 °F 43% 30.25 in 10.0 mi SW 5.8 mph - N/A   Clear
11:55 AM 61.9 °F 38.1 °F 41% 30.24 in 10.0 mi WSW 9.2 mph - N/A   Clear
12:15 PM 63.0 °F 39.0 °F 41% 30.22 in 10.0 mi SSE 5.8 mph - N/A   Clear
12:35 PM 63.1 °F 37.6 °F 39% 30.21 in 10.0 mi Calm Calm - N/A   Clear
12:55 PM 65.5 °F 39.2 °F 38% 30.20 in 10.0 mi SSW 8.1 mph - N/A   Clear
1:15 PM 63.7 °F 37.4 °F 38% 30.20 in 10.0 mi WSW 4.6 mph - N/A   Clear
1:35 PM 65.7 °F 36.3 °F 34% 30.19 in 10.0 mi SW 5.8 mph - N/A   Clear
2:15 PM 67.6 °F 37.6 °F 33% 30.17 in 10.0 mi West 4.6 mph - N/A   Clear
2:35 PM 68.4 °F 37.0 °F 32% 30.15 in 10.0 mi SSW 5.8 mph 9.2 mph N/A   Clear
2:55 PM 68.9 °F 37.2 °F 31% 30.15 in 10.0 mi SSW 8.1 mph - N/A   Clear
3:15 PM 69.6 °F 37.2 °F 31% 30.14 in 10.0 mi SSW 8.1 mph - N/A   Scattered Clouds
3:35 PM 69.6 °F 37.8 °F 31% 30.12 in 10.0 mi SSW 8.1 mph - N/A   Scattered Clouds
3:55 PM 70.2 °F 39.0 °F 32% 30.11 in 10.0 mi SSW 8.1 mph - N/A   Scattered Clouds
4:15 PM 70.7 °F 38.3 °F 31% 30.11 in 10.0 mi SW 12.7 mph - N/A   Scattered Clouds
4:35 PM 70.7 °F 38.3 °F 31% 30.11 in 10.0 mi SW 10.4 mph - N/A   Clear
4:55 PM 70.9 °F 39.2 °F 32% 30.10 in 10.0 mi South 8.1 mph - N/A   Clear
5:15 PM 70.9 °F 38.7 °F 31% 30.10 in 10.0 mi SSW 6.9 mph - N/A   Clear
5:35 PM 71.2 °F 39.2 °F 31% 30.10 in 10.0 mi SW 9.2 mph - N/A   Clear
5:55 PM 70.7 °F 39.4 °F 32% 30.09 in 10.0 mi SSW 8.1 mph - N/A   Clear
6:15 PM 70.7 °F 39.7 °F 32% 30.09 in 10.0 mi SW 12.7 mph - N/A   Clear
6:35 PM 70.5 °F 40.1 °F 33% 30.08 in 10.0 mi SW 11.5 mph 16.1 mph N/A   Clear
6:55 PM 69.8 °F 39.7 °F 33% 30.07 in 10.0 mi SW 8.1 mph - N/A   Clear
7:15 PM 69.1 °F 39.6 °F 34% 30.07 in 10.0 mi SSW 9.2 mph - N/A   Clear
7:35 PM 68.7 °F 40.3 °F 35% 30.07 in 10.0 mi SW 6.9 mph - N/A   Clear
7:55 PM 67.6 °F 40.5 °F 37% 30.07 in 10.0 mi SSW 5.8 mph - N/A   Clear
8:15 PM 66.2 °F 41.4 °F 40% 30.07 in 10.0 mi SSW 4.6 mph - N/A   Clear
9:15 PM 61.9 °F 43.7 °F 51% 30.06 in 10.0 mi South 4.6 mph - N/A   Clear
9:35 PM 60.3 °F 44.4 °F 56% 30.06 in 10.0 mi South 3.5 mph - N/A   Clear
9:55 PM 53.8 °F 46.4 °F 76% 30.07 in 10.0 mi Calm Calm - N/A   Clear
10:15 PM 51.6 °F 47.1 °F 85% 30.07 in 10.0 mi Calm Calm - N/A   Clear
10:35 PM 52.7 °F 46.4 °F 79% 30.06 in 10.0 mi Calm Calm - N/A   Clear
10:55 PM 52.9 °F 46.2 °F 78% 30.06 in 10.0 mi Calm Calm - N/A   Clear
11:15 PM 51.8 °F 47.1 °F 84% 30.06 in 10.0 mi Calm Calm - N/A   Clear
11:35 PM 52.0 °F 45.9 °F 80% 30.05 in 10.0 mi Calm Calm - N/A   Clear
11:55 PM 56.1 °F 45.3 °F 67% 30.05 in 10.0 mi Calm Calm - N/A   Clear